#timestamp,LO_Frequency,Hit,StdDev 
1560056415.8,286046994.9,N
1560056435.6,286046997.8,N
1560056455.5,286046997.3,N
1560056475.3,286046997.7,N
1560056495.1,286046995.1,N
1560056515.9,286046996.3,N
1560056535.7,286046996.0,N
1560056555.5,286046995.8,N
1560056575.4,286046995.0,Y
1560056595.2,286046999.4,P
1560056615.1,286046996.7,N
1560056616.0,286046996.7,N
1560056635.8,286046996.8,N
1560056655.6,286046997.7,N
1560056675.5,286046996.7,Y
1560056695.3,286046998.2,P
1560056715.1,286047000.3,N
1560056735.9,286046999.8,N
1560056755.7,286047000.6,N
1560056775.6,286047000.0,N
1560056795.4,286047000.5,N
1560056815.2,286047000.3,N
1560056835.1,286046999.9,N
1560056836.0,286046999.9,N
1560056855.8,286047000.9,N
1560056875.6,286046996.5,Y
1560056895.5,286046998.4,P
1560056915.3,286046999.0,N
1560056935.2,286046996.7,P
1560056955.9,286046998.5,N
1560056975.7,286046998.4,N
1560056995.6,286046999.1,N
1560057015.4,286046999.3,N
1560057035.2,286046996.8,Y
1560057055.1,286046999.0,P
1560057056.0,286046999.0,P
1560057075.8,286046998.3,P
1560057095.7,286047002.7,Y
1560057115.9,286047004.0,P
1560057135.7,286047004.3,N
1560057155.6,286047003.6,N
1560057175.4,286047003.8,N
1560057195.2,286047003.9,N
1560057215.1,286047001.8,N
1560057235.7,286047002.2,N
1560057255.6,286047002.3,N
1560057275.5,286046999.8,N
1560057295.3,286047004.3,N
1560057315.1,286047004.4,N
1560057335.9,286047003.8,N
1560057355.7,286047003.7,N
1560057375.6,286047005.4,Y
1560057395.4,286047000.1,P
1560057415.2,286047004.0,N
1560057435.1,286047001.8,N
1560057436.0,286047001.8,N
1560057455.8,286047004.2,Y
1560057475.6,286046999.9,P
1560057495.5,286047000.1,N
1560057515.3,286046999.7,N
1560057535.2,286046998.7,N
1560057555.9,286047001.0,N
1560057575.7,286047000.1,N
1560057595.6,286047000.1,N
1560057615.4,286047002.3,N
1560057635.2,286046999.9,N
1560057655.1,286047002.6,N
1560057656.0,286047002.6,N
1560057675.8,286047001.4,N
1560057695.7,286046999.9,N
1560057715.5,286047002.4,N
1560057735.3,286047002.6,N
1560057755.5,286047002.7,N
1560057775.3,286046999.8,N
1560057795.2,286047001.5,N
1560057815.0,286047001.9,N
1560057815.9,286047001.9,N
1560057835.8,286047000.1,N
1560057855.6,286047002.5,N
1560057875.4,286047003.8,Y
1560057895.3,286047001.9,P
1560057915.1,286046999.7,N
1560057935.8,286047000.2,N
1560057955.7,286046998.3,N
1560057975.3,286046998.1,N
1560057995.1,286046999.0,N
1560058015.9,286046996.6,N
1560058035.7,286046999.2,N
1560058055.5,286046998.5,N
1560058075.4,286047000.9,N
1560058095.2,286047000.5,N
1560058115.9,286046999.4,N
1560058135.7,286046998.3,N
1560058155.5,286046998.3,N
1560058175.4,286046998.7,N
1560058195.2,286046998.4,N
1560058215.0,286046999.4,N
1560058215.9,286046999.4,N
1560058235.8,286047001.1,N
1560058255.6,286046998.4,N
1560058275.4,286046999.1,N
1560058295.3,286046998.8,N
1560058315.1,286046998.9,N
1560058335.9,286047000.0,N
1560058355.7,286047000.6,N
1560058375.5,286047000.8,N
1560058395.4,286047000.0,N
1560058415.0,286047000.7,N
1560058415.9,286047000.7,N
1560058435.7,286046999.3,N
1560058455.6,286046998.6,N
1560058475.4,286046999.5,N
1560058495.3,286046998.2,N
1560058515.1,286046996.5,Y
1560058516.0,286046996.5,P
1560058535.8,286046999.0,N
1560058555.7,286046998.4,N
1560058575.5,286046998.1,N
1560058595.3,286047001.0,N
1560058615.2,286047000.0,N
1560058635.0,286046998.6,N
1560058635.9,286046998.6,N
1560058655.8,286047000.6,N
1560058675.6,286047000.8,N
1560058695.4,286046999.7,N
1560058715.3,286047000.0,N
1560058735.1,286047000.7,N
1560058755.8,286047000.4,N
1560058775.7,286047001.2,N
1560058795.5,286047000.4,N
1560058815.4,286046998.6,N
1560058835.2,286046998.1,N
1560058855.0,286046999.2,N
1560058855.9,286046999.2,N
1560058875.8,286046999.1,N
1560058895.6,286046998.4,N
1560058915.5,286046999.8,N
1560058935.3,286047000.6,N
1560058955.1,286047000.0,N
1560058975.9,286047000.4,N
1560058995.7,286047001.1,N
1560059015.5,286047000.0,N
1560059035.4,286047001.2,N
1560059055.2,286047000.7,N
1560059075.1,286046998.4,N
1560059076.0,286046998.4,N
1560059095.8,286047000.7,N
1560059115.6,286046998.6,N
1560059135.5,286046999.3,N
1560059155.3,286047001.0,N
1560059175.1,286046999.9,N
1560059195.9,286047000.0,N
1560059215.7,286046999.3,N
1560059235.6,286046997.4,N
1560059255.4,286046995.4,Y
1560059275.2,286046996.5,P
1560059295.1,286046998.8,N
1560059296.0,286046998.8,N
1560059315.8,286047001.0,N
1560059335.6,286046998.1,N
1560059355.5,286046998.9,N
1560059375.3,286046999.4,N
1560059395.2,286046997.3,N
1560059415.9,286047000.7,N
1560059435.7,286046998.5,N
1560059455.6,286046998.1,N
1560059475.4,286047000.2,N
1560059495.3,286047001.0,N
1560059515.1,286047000.3,N
1560059516.0,286047000.3,N
1560059535.8,286047000.7,N
1560059555.7,286046999.6,N
1560059575.5,286046997.3,N
1560059595.3,286046997.1,N
1560059615.2,286046996.9,N
1560059635.0,286047001.2,N
1560059635.9,286047001.2,N
1560059655.8,286046999.4,N
1560059675.6,286046998.1,N
1560059695.4,286046999.2,N
1560059715.3,286046999.0,N
1560059735.1,286046998.9,N
1560059755.8,286046999.1,N
1560059775.7,286046997.3,N
1560059795.6,286046996.5,N
1560059815.4,286046999.4,N
1560059835.9,286047000.7,N
1560059855.7,286047001.0,N
1560059875.6,286047001.2,N
1560059895.4,286047000.9,N
1560059915.4,286047000.3,N
1560059935.2,286047000.4,N
1560059955.1,286047000.5,N
1560059956.0,286047000.5,N
1560059975.8,286047000.8,N
1560059995.6,286046998.2,N
